owner,sensor,date,latitude,longitude,vertical_datum,direction_of_sea_water_velocity,sea_water_speed,upward_sea_water_velocity,qcFlag 
TABS,ioos:station:wmo:42045:1,2006-06-01T00:00:00Z,26.2168,-96.4998,2.0,45.54499279,20.07566935,-99999.0,'11111222,11111222,99999999' 
TABS,ioos:station:wmo:42045:1,2006-06-01T00:30:00Z,26.2168,-96.4998,2.0,48.20531367,18.59063474,-99999.0,'11111222,11111222,99999999' 
TABS,ioos:station:wmo:42045:1,2006-06-01T01:00:00Z,26.2168,-96.4998,2.0,42.88890258,15.16359126,-99999.0,'11111222,11111222,99999999' 
TABS,ioos:station:wmo:42045:1,2006-06-01T01:30:00Z,26.2168,-96.4998,2.0,34.7653264,10.34698024,-99999.0,'11111222,11111222,99999999' 
TABS,ioos:station:wmo:42045:1,2006-06-01T02:00:00Z,26.2168,-96.4998,2.0,27.00177823,9.977624968,-99999.0,'11133222,11111222,99999999' 
TABS,ioos:station:wmo:42045:1,2006-06-01T02:30:00Z,26.2168,-96.4998,2.0,20.26015653,14.49691002,-99999.0,'11111222,11111222,99999999' 
TABS,ioos:station:wmo:42045:1,2006-06-01T03:00:00Z,26.2168,-96.4998,2.0,22.22300282,15.65268348,-99999.0,'11111222,11111222,99999999' 
TABS,ioos:station:wmo:42045:1,2006-06-01T03:30:00Z,26.2168,-96.4998,2.0,27.84832945,15.77717972,-99999.0,'11111222,11111222,99999999' 
TABS,ioos:station:wmo:42045:1,2006-06-01T04:00:00Z,26.2168,-96.4998,2.0,24.384689,15.16257564,-99999.0,'11111222,11111222,99999999' 
TABS,ioos:station:wmo:42045:1,2006-06-01T04:30:00Z,26.2168,-96.4998,2.0,31.41767506,15.80752036,-99999.0,'11111222,11111222,99999999' 
TABS,ioos:station:wmo:42045:1,2006-06-01T05:00:00Z,26.2168,-96.4998,2.0,28.58633128,13.18758886,-99999.0,'11111222,11111222,99999999' 
TABS,ioos:station:wmo:42045:1,2006-06-01T05:30:00Z,26.2168,-96.4998,2.0,26.03679616,13.57798218,-99999.0,'11111222,11111222,99999999' 
TABS,ioos:station:wmo:42045:1,2006-06-01T06:00:00Z,26.2168,-96.4998,2.0,22.60627678,12.82538498,-99999.0,'11111222,11111222,99999999' 
TABS,ioos:station:wmo:42045:1,2006-06-01T06:30:00Z,26.2168,-96.4998,2.0,17.49083904,14.00763006,-99999.0,'11111222,11111222,99999999' 
TABS,ioos:station:wmo:42045:1,2006-06-01T07:00:00Z,26.2168,-96.4998,2.0,19.39797755,11.29092556,-99999.0,'11111222,11111222,99999999' 
TABS,ioos:station:wmo:42045:1,2006-06-01T07:30:00Z,26.2168,-96.4998,2.0,20.07522408,11.71154985,-99999.0,'11111222,11111222,99999999' 
TABS,ioos:station:wmo:42045:1,2006-06-01T08:00:00Z,26.2168,-96.4998,2.0,27.97848689,13.96178355,-99999.0,'11111222,11111222,99999999' 
TABS,ioos:station:wmo:42045:1,2006-06-01T08:30:00Z,26.2168,-96.4998,2.0,30.2099436,12.38155483,-99999.0,'11111222,11111222,99999999' 
TABS,ioos:station:wmo:42045:1,2006-06-01T09:00:00Z,26.2168,-96.4998,2.0,26.45014817,11.13564098,-99999.0,'11111222,11111222,99999999' 
TABS,ioos:station:wmo:42045:1,2006-06-01T09:30:00Z,26.2168,-96.4998,2.0,20.48230163,10.88834698,-99999.0,'11111222,11111222,99999999' 
TABS,ioos:station:wmo:42045:1,2006-06-01T10:00:00Z,26.2168,-96.4998,2.0,15.88554572,11.80065252,-99999.0,'11111222,11111222,99999999' 
TABS,ioos:station:wmo:42045:1,2006-06-01T10:30:00Z,26.2168,-96.4998,2.0,22.17288445,12.32114443,-99999.0,'11111222,11111222,99999999' 
TABS,ioos:station:wmo:42045:1,2006-06-01T11:00:00Z,26.2168,-96.4998,2.0,31.07723894,6.935416354,-99999.0,'11133222,11111222,99999999' 
TABS,ioos:station:wmo:42045:1,2006-06-01T11:30:00Z,26.2168,-96.4998,2.0,9.69756828,14.42613254,-99999.0,'11111222,11111222,99999999' 
TABS,ioos:station:wmo:42045:1,2006-06-01T12:00:00Z,26.2168,-96.4998,2.0,1.573218866,19.30727583,-99999.0,'11111222,11111222,99999999' 
TABS,ioos:station:wmo:42045:1,2006-06-01T12:30:00Z,26.2168,-96.4998,2.0,358.2254203,21.3102229,-99999.0,'11111222,11111222,99999999' 
TABS,ioos:station:wmo:42045:1,2006-06-01T13:00:00Z,26.2168,-96.4998,2.0,352.9259915,23.79111179,-99999.0,'11111222,11111222,99999999' 
TABS,ioos:station:wmo:42045:1,2006-06-01T13:30:00Z,26.2168,-96.4998,2.0,356.3298596,22.80677969,-99999.0,'11111222,11111222,99999999' 
TABS,ioos:station:wmo:42045:1,2006-06-01T14:00:00Z,26.2168,-96.4998,2.0,347.2644854,23.72366961,-99999.0,'11111222,11111222,99999999' 
TABS,ioos:station:wmo:42045:1,2006-06-01T15:00:00Z,26.2168,-96.4998,2.0,355.7955839,23.32277213,-99999.0,'11111222,11111222,99999999' 
TABS,ioos:station:wmo:42045:1,2006-06-01T15:30:00Z,26.2168,-96.4998,2.0,357.9590415,24.14532046,-99999.0,'11111222,11111222,99999999' 
TABS,ioos:station:wmo:42045:1,2006-06-01T16:00:00Z,26.2168,-96.4998,2.0,2.638246497,23.46486736,-99999.0,'11111222,11111222,99999999' 
TABS,ioos:station:wmo:42045:1,2006-06-01T16:30:00Z,26.2168,-96.4998,2.0,1.547078786,24.07877489,-99999.0,'11111222,11111222,99999999' 
TABS,ioos:station:wmo:42045:1,2006-06-01T17:00:00Z,26.2168,-96.4998,2.0,0.799261099,21.51209195,-99999.0,'11111222,11111222,99999999' 
TABS,ioos:station:wmo:42045:1,2006-06-01T17:30:00Z,26.2168,-96.4998,2.0,5.02221872,21.36200599,-99999.0,'11111222,11111222,99999999' 
TABS,ioos:station:wmo:42045:1,2006-06-01T18:00:00Z,26.2168,-96.4998,2.0,358.6847271,23.08608455,-99999.0,'11111222,11111222,99999999' 
TABS,ioos:station:wmo:42045:1,2006-06-01T18:30:00Z,26.2168,-96.4998,2.0,358.3782303,25.79033346,-99999.0,'11111222,11111222,99999999' 
TABS,ioos:station:wmo:42045:1,2006-06-01T19:00:00Z,26.2168,-96.4998,2.0,355.3590811,27.18915225,-99999.0,'11111222,11111222,99999999' 
TABS,ioos:station:wmo:42045:1,2006-06-01T19:30:00Z,26.2168,-96.4998,2.0,356.38312,28.05588886,-99999.0,'11111222,11111222,99999999' 
TABS,ioos:station:wmo:42045:1,2006-06-01T20:00:00Z,26.2168,-96.4998,2.0,356.5102198,31.04757962,-99999.0,'11111222,11111222,99999999' 
TABS,ioos:station:wmo:42045:1,2006-06-01T20:30:00Z,26.2168,-96.4998,2.0,359.5053314,35.89133879,-99999.0,'11111222,11144222,99999999' 
TABS,ioos:station:wmo:42045:1,2006-06-01T21:00:00Z,26.2168,-96.4998,2.0,1.997371674,37.30265942,-99999.0,'11111222,11111222,99999999' 
TABS,ioos:station:wmo:42045:1,2006-06-01T21:30:00Z,26.2168,-96.4998,2.0,0.033367657,34.56000579,-99999.0,'11111222,11111222,99999999' 
TABS,ioos:station:wmo:42045:1,2006-06-01T22:00:00Z,26.2168,-96.4998,2.0,5.440529768,33.75203698,-99999.0,'11111222,11111222,99999999' 
TABS,ioos:station:wmo:42045:1,2006-06-01T22:30:00Z,26.2168,-96.4998,2.0,20.11088026,36.44186192,-99999.0,'11111222,11111222,99999999' 
TABS,ioos:station:wmo:42045:1,2006-06-01T23:00:00Z,26.2168,-96.4998,2.0,21.94395892,38.85501255,-99999.0,'11111222,11111222,99999999' 
TABS,ioos:station:wmo:42045:1,2006-06-01T23:30:00Z,26.2168,-96.4998,2.0,21.89876015,38.31457425,-99999.0,'11111222,11111222,99999999' 
TABS,ioos:station:wmo:42045:1,2006-06-02T00:00:00Z,26.2168,-96.4998,2.0,26.62716306,37.21713718,-99999.0,'11111222,11111222,99999999' 
TABS,ioos:station:wmo:42045:1,2006-06-02T00:30:00Z,26.2168,-96.4998,2.0,28.71591485,37.77591031,-99999.0,'11111222,11111222,99999999' 
TABS,ioos:station:wmo:42045:1,2006-06-02T01:00:00Z,26.2168,-96.4998,2.0,36.78507426,36.42204003,-99999.0,'11111222,11111222,99999999' 
TABS,ioos:station:wmo:42045:1,2006-06-02T01:30:00Z,26.2168,-96.4998,2.0,38.9810502,33.71688301,-99999.0,'11111222,11111222,99999999' 
TABS,ioos:station:wmo:42045:1,2006-06-02T02:00:00Z,26.2168,-96.4998,2.0,43.71036487,30.15867371,-99999.0,'11111222,11111222,99999999' 
TABS,ioos:station:wmo:42045:1,2006-06-02T02:30:00Z,26.2168,-96.4998,2.0,50.09813134,29.68155151,-99999.0,'11111222,11111222,99999999' 
TABS,ioos:station:wmo:42045:1,2006-06-02T03:00:00Z,26.2168,-96.4998,2.0,52.13843491,30.15851787,-99999.0,'11111222,11111222,99999999' 
TABS,ioos:station:wmo:42045:1,2006-06-02T03:30:00Z,26.2168,-96.4998,2.0,54.35204619,27.76231258,-99999.0,'11111222,11111222,99999999' 
TABS,ioos:station:wmo:42045:1,2006-06-02T04:00:00Z,26.2168,-96.4998,2.0,53.43313413,26.85637541,-99999.0,'11111222,11111222,99999999' 
TABS,ioos:station:wmo:42045:1,2006-06-02T04:30:00Z,26.2168,-96.4998,2.0,54.34976477,24.24349191,-99999.0,'11111222,11111222,99999999' 
TABS,ioos:station:wmo:42045:1,2006-06-02T05:00:00Z,26.2168,-96.4998,2.0,53.42705454,21.23028497,-99999.0,'11111222,11111222,99999999' 
TABS,ioos:station:wmo:42045:1,2006-06-02T05:30:00Z,26.2168,-96.4998,2.0,49.85216884,18.64250251,-99999.0,'11111222,11111222,99999999' 
TABS,ioos:station:wmo:42045:1,2006-06-02T06:00:00Z,26.2168,-96.4998,2.0,55.92652587,15.33225685,-99999.0,'11111222,11111222,99999999' 
TABS,ioos:station:wmo:42045:1,2006-06-02T06:30:00Z,26.2168,-96.4998,2.0,48.05116252,8.900949388,-99999.0,'11133222,11111222,99999999' 
TABS,ioos:station:wmo:42045:1,2006-06-02T07:00:00Z,26.2168,-96.4998,2.0,49.34433102,10.26840786,-99999.0,'11111222,11111222,99999999' 
TABS,ioos:station:wmo:42045:1,2006-06-02T07:30:00Z,26.2168,-96.4998,2.0,37.43317875,7.732373504,-99999.0,'11133222,11111222,99999999' 
TABS,ioos:station:wmo:42045:1,2006-06-02T08:00:00Z,26.2168,-96.4998,2.0,4.886368113,5.048346264,-99999.0,'11133222,11111222,99999999' 
TABS,ioos:station:wmo:42045:1,2006-06-02T08:30:00Z,26.2168,-96.4998,2.0,350.4625639,8.750965661,-99999.0,'11133222,11111222,99999999' 
TABS,ioos:station:wmo:42045:1,2006-06-02T09:00:00Z,26.2168,-96.4998,2.0,5.154106968,10.24140615,-99999.0,'11111222,11111222,99999999' 
TABS,ioos:station:wmo:42045:1,2006-06-02T09:30:00Z,26.2168,-96.4998,2.0,3.576536471,8.496546357,-99999.0,'11133222,11111222,99999999' 
TABS,ioos:station:wmo:42045:1,2006-06-02T10:00:00Z,26.2168,-96.4998,2.0,358.05213,11.76680075,-99999.0,'11111222,11111222,99999999' 
TABS,ioos:station:wmo:42045:1,2006-06-02T10:30:00Z,26.2168,-96.4998,2.0,356.3455729,10.04041832,-99999.0,'11111222,11111222,99999999' 
TABS,ioos:station:wmo:42045:1,2006-06-02T11:00:00Z,26.2168,-96.4998,2.0,355.106481,9.143330903,-99999.0,'11133222,11111222,99999999' 
TABS,ioos:station:wmo:42045:1,2006-06-02T11:30:00Z,26.2168,-96.4998,2.0,0.324598475,14.13022647,-99999.0,'11111222,11111222,99999999' 
TABS,ioos:station:wmo:42045:1,2006-06-02T12:00:00Z,26.2168,-96.4998,2.0,4.613093859,16.41316545,-99999.0,'11111222,11111222,99999999' 
TABS,ioos:station:wmo:42045:1,2006-06-02T12:30:00Z,26.2168,-96.4998,2.0,6.49223955,18.75023467,-99999.0,'11111222,11111222,99999999' 
TABS,ioos:station:wmo:42045:1,2006-06-02T13:00:00Z,26.2168,-96.4998,2.0,12.55931829,18.4412608,-99999.0,'11111222,11111222,99999999' 
TABS,ioos:station:wmo:42045:1,2006-06-02T13:30:00Z,26.2168,-96.4998,2.0,7.128884828,19.33949586,-99999.0,'11111222,11111222,99999999' 
TABS,ioos:station:wmo:42045:1,2006-06-02T14:00:00Z,26.2168,-96.4998,2.0,14.28678449,18.31646527,-99999.0,'11111222,11111222,99999999' 
TABS,ioos:station:wmo:42045:1,2006-06-02T15:00:00Z,26.2168,-96.4998,2.0,14.12243977,19.38589436,-99999.0,'11111222,11111222,99999999' 
TABS,ioos:station:wmo:42045:1,2006-06-02T15:30:00Z,26.2168,-96.4998,2.0,18.86075429,19.58136359,-99999.0,'11111222,11111222,99999999' 
TABS,ioos:station:wmo:42045:1,2006-06-02T16:00:00Z,26.2168,-96.4998,2.0,14.25594358,21.52276934,-99999.0,'11111222,11111222,99999999' 
TABS,ioos:station:wmo:42045:1,2006-06-02T17:00:00Z,26.2168,-96.4998,2.0,21.65644557,26.39296308,-99999.0,'11111222,11111222,99999999' 
TABS,ioos:station:wmo:42045:1,2006-06-02T17:30:00Z,26.2168,-96.4998,2.0,25.47976961,25.73281563,-99999.0,'11111222,11111222,99999999' 
TABS,ioos:station:wmo:42045:1,2006-06-02T18:00:00Z,26.2168,-96.4998,2.0,29.30768117,24.86224648,-99999.0,'11111222,11111222,99999999' 
TABS,ioos:station:wmo:42045:1,2006-06-02T18:30:00Z,26.2168,-96.4998,2.0,32.85544408,24.36779227,-99999.0,'11111222,11111222,99999999' 
TABS,ioos:station:wmo:42045:1,2006-06-02T19:00:00Z,26.2168,-96.4998,2.0,32.66155672,24.25540146,-99999.0,'11111222,11111222,99999999' 
TABS,ioos:station:wmo:42045:1,2006-06-02T19:30:00Z,26.2168,-96.4998,2.0,31.68675281,24.19694609,-99999.0,'11111222,11111222,99999999' 
TABS,ioos:station:wmo:42045:1,2006-06-02T20:00:00Z,26.2168,-96.4998,2.0,31.61135796,20.18495727,-99999.0,'11111222,11111222,99999999' 
TABS,ioos:station:wmo:42045:1,2006-06-02T21:00:00Z,26.2168,-96.4998,2.0,28.35765038,15.72725342,-99999.0,'11111222,11111222,99999999' 
TABS,ioos:station:wmo:42045:1,2006-06-02T21:30:00Z,26.2168,-96.4998,2.0,44.47649438,14.70136388,-99999.0,'11111222,11111222,99999999' 
TABS,ioos:station:wmo:42045:1,2006-06-02T22:00:00Z,26.2168,-96.4998,2.0,43.89634806,11.37945957,-99999.0,'11111222,11111222,99999999' 
TABS,ioos:station:wmo:42045:1,2006-06-02T22:30:00Z,26.2168,-96.4998,2.0,30.75415498,10.7753283,-99999.0,'11111222,11111222,99999999' 
TABS,ioos:station:wmo:42045:1,2006-06-02T23:00:00Z,26.2168,-96.4998,2.0,20.3622827,10.71986007,-99999.0,'11111222,11111222,99999999' 
TABS,ioos:station:wmo:42045:1,2006-06-02T23:30:00Z,26.2168,-96.4998,2.0,14.63253926,12.58828026,-99999.0,'11111222,11111222,99999999' 
TABS,ioos:station:wmo:42045:1,2006-06-03T00:00:00Z,26.2168,-96.4998,2.0,17.08973029,12.79494041,-99999.0,'11111222,11111222,99999999' 
TABS,ioos:station:wmo:42045:1,2006-06-03T00:30:00Z,26.2168,-96.4998,2.0,10.10441344,13.7939407,-99999.0,'11111222,11111222,99999999' 
TABS,ioos:station:wmo:42045:1,2006-06-03T01:00:00Z,26.2168,-96.4998,2.0,11.86819883,14.29558323,-99999.0,'11111222,11111222,99999999' 
TABS,ioos:station:wmo:42045:1,2006-06-03T01:30:00Z,26.2168,-96.4998,2.0,21.40190477,14.90798444,-99999.0,'11111222,11111222,99999999' 
TABS,ioos:station:wmo:42045:1,2006-06-03T02:00:00Z,26.2168,-96.4998,2.0,23.067565,9.749528194,-99999.0,'11133222,11111222,99999999' 
TABS,ioos:station:wmo:42045:1,2006-06-03T02:30:00Z,26.2168,-96.4998,2.0,30.76285806,15.15199327,-99999.0,'11111222,11111222,99999999' 
TABS,ioos:station:wmo:42045:1,2006-06-03T03:00:00Z,26.2168,-96.4998,2.0,36.56872092,16.73423138,-99999.0,'11111222,11111222,99999999' 
TABS,ioos:station:wmo:42045:1,2006-06-03T03:30:00Z,26.2168,-96.4998,2.0,30.5647276,13.78539082,-99999.0,'11111222,11111222,99999999' 
TABS,ioos:station:wmo:42045:1,2006-06-03T04:00:00Z,26.2168,-96.4998,2.0,33.03564033,16.50895515,-99999.0,'11111222,11111222,99999999' 
TABS,ioos:station:wmo:42045:1,2006-06-03T04:30:00Z,26.2168,-96.4998,2.0,40.8345367,17.32746375,-99999.0,'11111222,11111222,99999999' 
TABS,ioos:station:wmo:42045:1,2006-06-03T05:00:00Z,26.2168,-96.4998,2.0,40.91630367,15.98584687,-99999.0,'11111222,11111222,99999999' 
TABS,ioos:station:wmo:42045:1,2006-06-03T05:30:00Z,26.2168,-96.4998,2.0,42.58835664,11.76253374,-99999.0,'11111222,11111222,99999999' 
TABS,ioos:station:wmo:42045:1,2006-06-03T06:00:00Z,26.2168,-96.4998,2.0,42.53226205,12.9732995,-99999.0,'11111222,11111222,99999999' 
TABS,ioos:station:wmo:42045:1,2006-06-03T06:30:00Z,26.2168,-96.4998,2.0,45.37061864,12.02813784,-99999.0,'11111222,11111222,99999999' 
TABS,ioos:station:wmo:42045:1,2006-06-03T07:00:00Z,26.2168,-96.4998,2.0,30.49257432,11.88353904,-99999.0,'11111222,11111222,99999999' 
TABS,ioos:station:wmo:42045:1,2006-06-03T07:30:00Z,26.2168,-96.4998,2.0,36.36371665,14.03254788,-99999.0,'11111222,11111222,99999999' 
TABS,ioos:station:wmo:42045:1,2006-06-03T08:00:00Z,26.2168,-96.4998,2.0,42.8838328,12.4464975,-99999.0,'11111222,11111222,99999999' 
TABS,ioos:station:wmo:42045:1,2006-06-03T08:30:00Z,26.2168,-96.4998,2.0,41.11669282,13.990411,-99999.0,'11111222,11111222,99999999' 
TABS,ioos:station:wmo:42045:1,2006-06-03T09:00:00Z,26.2168,-96.4998,2.0,31.7437065,10.20682615,-99999.0,'11111222,11111222,99999999' 
TABS,ioos:station:wmo:42045:1,2006-06-03T09:30:00Z,26.2168,-96.4998,2.0,33.60589964,11.31034924,-99999.0,'11111222,11111222,99999999' 
TABS,ioos:station:wmo:42045:1,2006-06-03T10:00:00Z,26.2168,-96.4998,2.0,31.68016072,11.38668082,-99999.0,'11111222,11111222,99999999' 
TABS,ioos:station:wmo:42045:1,2006-06-03T10:30:00Z,26.2168,-96.4998,2.0,35.00104913,10.5476111,-99999.0,'11111222,11111222,99999999' 
TABS,ioos:station:wmo:42045:1,2006-06-03T11:00:00Z,26.2168,-96.4998,2.0,36.16087193,6.948532219,-99999.0,'11133222,11111222,99999999' 
TABS,ioos:station:wmo:42045:1,2006-06-03T11:30:00Z,26.2168,-96.4998,2.0,33.90093516,12.81920824,-99999.0,'11111222,11111222,99999999' 
TABS,ioos:station:wmo:42045:1,2006-06-03T12:00:00Z,26.2168,-96.4998,2.0,31.81498966,14.66303175,-99999.0,'11111222,11111222,99999999' 
TABS,ioos:station:wmo:42045:1,2006-06-03T12:30:00Z,26.2168,-96.4998,2.0,40.85468214,14.47699554,-99999.0,'11111222,11111222,99999999' 
TABS,ioos:station:wmo:42045:1,2006-06-03T13:00:00Z,26.2168,-96.4998,2.0,37.04373607,15.17206973,-99999.0,'11111222,11111222,99999999' 
TABS,ioos:station:wmo:42045:1,2006-06-03T13:30:00Z,26.2168,-96.4998,2.0,36.23024343,15.58297148,-99999.0,'11111222,11111222,99999999' 
TABS,ioos:station:wmo:42045:1,2006-06-03T14:00:00Z,26.2168,-96.4998,2.0,27.80993178,17.70489198,-99999.0,'11111222,11111222,99999999' 
TABS,ioos:station:wmo:42045:1,2006-06-03T14:30:00Z,26.2168,-96.4998,2.0,27.31057686,15.12604377,-99999.0,'11111222,11111222,99999999' 
TABS,ioos:station:wmo:42045:1,2006-06-03T15:00:00Z,26.2168,-96.4998,2.0,27.74696565,13.66080891,-99999.0,'11111222,11111222,99999999' 
TABS,ioos:station:wmo:42045:1,2006-06-03T15:30:00Z,26.2168,-96.4998,2.0,16.89345243,18.10110494,-99999.0,'11111222,11111222,99999999' 
TABS,ioos:station:wmo:42045:1,2006-06-03T16:00:00Z,26.2168,-96.4998,2.0,18.13973129,19.01502827,-99999.0,'11111222,11111222,99999999' 
TABS,ioos:station:wmo:42045:1,2006-06-03T16:30:00Z,26.2168,-96.4998,2.0,17.57034191,16.76198079,-99999.0,'11111222,11111222,99999999' 
TABS,ioos:station:wmo:42045:1,2006-06-03T17:00:00Z,26.2168,-96.4998,2.0,10.82275864,18.90627938,-99999.0,'11111222,11111222,99999999' 
TABS,ioos:station:wmo:42045:1,2006-06-03T17:30:00Z,26.2168,-96.4998,2.0,13.05842332,18.89870366,-99999.0,'11111222,11111222,99999999' 
TABS,ioos:station:wmo:42045:1,2006-06-03T18:00:00Z,26.2168,-96.4998,2.0,17.32565609,17.96510507,-99999.0,'11111222,11111222,99999999' 
TABS,ioos:station:wmo:42045:1,2006-06-03T18:30:00Z,26.2168,-96.4998,2.0,16.83881361,18.50334294,-99999.0,'11111222,11111222,99999999' 
TABS,ioos:station:wmo:42045:1,2006-06-03T19:00:00Z,26.2168,-96.4998,2.0,25.76286813,18.84295624,-99999.0,'11111222,11111222,99999999' 
TABS,ioos:station:wmo:42045:1,2006-06-03T19:30:00Z,26.2168,-96.4998,2.0,32.19304967,19.10762413,-99999.0,'11111222,11111222,99999999' 
TABS,ioos:station:wmo:42045:1,2006-06-03T20:00:00Z,26.2168,-96.4998,2.0,35.4310432,22.4590828,-99999.0,'11111222,11111222,99999999' 
TABS,ioos:station:wmo:42045:1,2006-06-03T20:30:00Z,26.2168,-96.4998,2.0,30.67324784,26.03210518,-99999.0,'11111222,11111222,99999999' 
TABS,ioos:station:wmo:42045:1,2006-06-03T21:00:00Z,26.2168,-96.4998,2.0,29.26299884,25.65377165,-99999.0,'11111222,11111222,99999999' 
TABS,ioos:station:wmo:42045:1,2006-06-03T21:30:00Z,26.2168,-96.4998,2.0,37.06958652,28.13617067,-99999.0,'11111222,11111222,99999999' 
TABS,ioos:station:wmo:42045:1,2006-06-03T22:00:00Z,26.2168,-96.4998,2.0,42.72508413,24.93809937,-99999.0,'11111222,11111222,99999999' 
TABS,ioos:station:wmo:42045:1,2006-06-03T22:30:00Z,26.2168,-96.4998,2.0,37.94328058,22.85000875,-99999.0,'11111222,11111222,99999999' 
TABS,ioos:station:wmo:42045:1,2006-06-03T23:00:00Z,26.2168,-96.4998,2.0,40.49953044,23.78971627,-99999.0,'11111222,11111222,99999999' 
TABS,ioos:station:wmo:42045:1,2006-06-03T23:30:00Z,26.2168,-96.4998,2.0,44.03182031,20.08470065,-99999.0,'11111222,11111222,99999999' 
TABS,ioos:station:wmo:42045:1,2006-06-04T00:00:00Z,26.2168,-96.4998,2.0,21.41221858,22.95433075,-99999.0,'11111222,11111222,99999999' 
TABS,ioos:station:wmo:42045:1,2006-06-04T00:30:00Z,26.2168,-96.4998,2.0,20.90094617,22.56477122,-99999.0,'11111222,11111222,99999999' 
TABS,ioos:station:wmo:42045:1,2006-06-04T01:00:00Z,26.2168,-96.4998,2.0,35.94071326,22.81300068,-99999.0,'11111222,11111222,99999999' 
TABS,ioos:station:wmo:42045:1,2006-06-04T01:30:00Z,26.2168,-96.4998,2.0,28.18847733,20.36533574,-99999.0,'11111222,11111222,99999999' 
TABS,ioos:station:wmo:42045:1,2006-06-04T02:00:00Z,26.2168,-96.4998,2.0,15.27226327,17.76744213,-99999.0,'11111222,11111222,99999999' 
TABS,ioos:station:wmo:42045:1,2006-06-04T02:30:00Z,26.2168,-96.4998,2.0,9.819488136,30.08066655,-99999.0,'11111222,11111222,99999999' 
TABS,ioos:station:wmo:42045:1,2006-06-04T03:00:00Z,26.2168,-96.4998,2.0,13.99597808,34.36003056,-99999.0,'11111222,11111222,99999999' 
TABS,ioos:station:wmo:42045:1,2006-06-04T03:30:00Z,26.2168,-96.4998,2.0,11.81695249,41.45861189,-99999.0,'11111222,11111222,99999999' 
TABS,ioos:station:wmo:42045:1,2006-06-04T04:00:00Z,26.2168,-96.4998,2.0,19.34405956,39.66944038,-99999.0,'11111222,11111222,99999999' 
TABS,ioos:station:wmo:42045:1,2006-06-04T04:30:00Z,26.2168,-96.4998,2.0,27.40674748,38.6702586,-99999.0,'11111222,11111222,99999999' 
TABS,ioos:station:wmo:42045:1,2006-06-04T05:00:00Z,26.2168,-96.4998,2.0,31.58366447,37.57582334,-99999.0,'11111222,11111222,99999999' 
TABS,ioos:station:wmo:42045:1,2006-06-04T05:30:00Z,26.2168,-96.4998,2.0,30.23621594,38.48567136,-99999.0,'11111222,11111222,99999999' 
TABS,ioos:station:wmo:42045:1,2006-06-04T06:00:00Z,26.2168,-96.4998,2.0,29.80121209,35.4131741,-99999.0,'11111222,11111222,99999999' 
TABS,ioos:station:wmo:42045:1,2006-06-04T06:30:00Z,26.2168,-96.4998,2.0,29.95775012,35.74581654,-99999.0,'11111222,11111222,99999999' 
TABS,ioos:station:wmo:42045:1,2006-06-04T07:00:00Z,26.2168,-96.4998,2.0,33.24520234,34.63929849,-99999.0,'11111222,11111222,99999999' 
TABS,ioos:station:wmo:42045:1,2006-06-04T07:30:00Z,26.2168,-96.4998,2.0,32.73116316,32.80956568,-99999.0,'11111222,11111222,99999999' 
TABS,ioos:station:wmo:42045:1,2006-06-04T08:00:00Z,26.2168,-96.4998,2.0,35.11644918,33.9859162,-99999.0,'11111222,11111222,99999999' 
TABS,ioos:station:wmo:42045:1,2006-06-04T08:30:00Z,26.2168,-96.4998,2.0,36.44756679,33.09289954,-99999.0,'11111222,11111222,99999999' 
TABS,ioos:station:wmo:42045:1,2006-06-04T09:00:00Z,26.2168,-96.4998,2.0,37.20829236,34.2145963,-99999.0,'11111222,11111222,99999999' 
TABS,ioos:station:wmo:42045:1,2006-06-04T09:30:00Z,26.2168,-96.4998,2.0,37.93510775,30.98735387,-99999.0,'11111222,11111222,99999999' 
TABS,ioos:station:wmo:42045:1,2006-06-04T10:00:00Z,26.2168,-96.4998,2.0,39.05547156,30.31404955,-99999.0,'11111222,11111222,99999999' 
TABS,ioos:station:wmo:42045:1,2006-06-04T10:30:00Z,26.2168,-96.4998,2.0,39.2799408,29.44203967,-99999.0,'11111222,11111222,99999999' 
TABS,ioos:station:wmo:42045:1,2006-06-04T11:00:00Z,26.2168,-96.4998,2.0,39.05547156,30.31404955,-99999.0,'11111222,11111222,99999999' 
TABS,ioos:station:wmo:42045:1,2006-06-04T11:30:00Z,26.2168,-96.4998,2.0,41.40919908,29.46642326,-99999.0,'11111222,11111222,99999999' 
TABS,ioos:station:wmo:42045:1,2006-06-04T12:00:00Z,26.2168,-96.4998,2.0,39.90884476,28.44599972,-99999.0,'11111222,11111222,99999999' 
TABS,ioos:station:wmo:42045:1,2006-06-04T12:30:00Z,26.2168,-96.4998,2.0,31.43142565,31.52591949,-99999.0,'11111222,11111222,99999999' 
TABS,ioos:station:wmo:42045:1,2006-06-04T13:00:00Z,26.2168,-96.4998,2.0,38.61829552,30.09000665,-99999.0,'11111222,11111222,99999999' 
TABS,ioos:station:wmo:42045:1,2006-06-04T13:30:00Z,26.2168,-96.4998,2.0,37.72621876,31.05146695,-99999.0,'11111222,11111222,99999999' 
TABS,ioos:station:wmo:42045:1,2006-06-04T14:00:00Z,26.2168,-96.4998,2.0,39.49004401,32.77025633,-99999.0,'11111222,11111222,99999999' 
TABS,ioos:station:wmo:42045:1,2006-06-04T14:30:00Z,26.2168,-96.4998,2.0,44.21897181,30.08311819,-99999.0,'11111222,11111222,99999999' 
TABS,ioos:station:wmo:42045:1,2006-06-04T15:00:00Z,26.2168,-96.4998,2.0,41.60362765,28.52529579,-99999.0,'11111222,11111222,99999999' 
TABS,ioos:station:wmo:42045:1,2006-06-04T15:30:00Z,26.2168,-96.4998,2.0,42.08156587,28.4696909,-99999.0,'11111222,11111222,99999999' 
TABS,ioos:station:wmo:42045:1,2006-06-04T16:00:00Z,26.2168,-96.4998,2.0,43.49392409,25.55659797,-99999.0,'11111222,11111222,99999999' 
TABS,ioos:station:wmo:42045:1,2006-06-04T16:30:00Z,26.2168,-96.4998,2.0,38.96555013,24.886643,-99999.0,'11111222,11111222,99999999' 
TABS,ioos:station:wmo:42045:1,2006-06-04T17:00:00Z,26.2168,-96.4998,2.0,35.56223594,24.53639134,-99999.0,'11111222,11111222,99999999' 
TABS,ioos:station:wmo:42045:1,2006-06-04T17:30:00Z,26.2168,-96.4998,2.0,34.92263973,25.66082033,-99999.0,'11111222,11111222,99999999' 
TABS,ioos:station:wmo:42045:1,2006-06-04T18:00:00Z,26.2168,-96.4998,2.0,38.54310695,25.2767759,-99999.0,'11111222,11111222,99999999' 